This demonstration page uses our WeatherBlox Daily Observations layout. Learn more.

Left ArrowRight Arrow

36.17497, -115.13722

Hourly Observations for August 21, 2016

Temp ( °F °C ) Dew Point ( °F °C ) Humidity (%) Winds ( mph kmh ) Pressure ( in mb ) Visibility ( mi km ) Precip ( " mm )
12:53 am 00:53 Clear 90 32.2 45 7.2 21 21 S 16 26 29.75 1008 10 16.0934 0 0
1:53 am 01:53 Clear 89 31.7 45 7.2 22 22 SSW 13 20 29.75 1008 10 16.0934 0 0
2:53 am 02:53 Clear 89 31.7 42 5.6 19 19 WSW 5 7 29.76 1008 10 16.0934 0 0
3:53 am 03:53 Clear 88 31.1 42 5.6 20 20 S 14 22 29.76 1008 10 16.0934 0 0
4:53 am 04:53 Clear 86 30 41 5 20 20 SSE 9 15 29.78 1008 10 16.0934 0 0
5:53 am 05:53 Clear 83 28.3 48 8.9 30 30 E 9 15 29.81 1009 10 16.0934 0 0
6:53 am 06:53 Sunny 83 28.3 49 9.4 31 31 ENE 8 13 29.82 1010 10 16.0934 0 0
7:53 am 07:53 Sunny 83 28.3 49 9.4 31 31 SE 5 7 29.85 1011 10 16.0934 0 0
8:53 am 08:53 Sunny 86 30 50 10 29 29 SE 7 11 29.86 1011 10 16.0934 0 0
9:53 am 09:53 Sunny 87 30.6 52 11.1 30 30 NE 7 11 29.87 1011 10 16.0934 0 0
10:53 am 10:53 Sunny 90 32.2 45 7.2 21 21 S 10 17 29.87 1012 10 16.0934 0 0
11:53 am 11:53 Sunny 90 32.2 47 8.3 23 23 SW 8 13 29.86 1011 10 16.0934 0 0
12:53 pm 12:53 Sunny 94 34.4 44 6.7 18 18 Calm 29.83 1010 10 16.0934 0 0
1:53 pm 13:53 Sunny 99 37.2 40 4.4 13 13 SSE 14 22 29.81 1009 10 16.0934 0 0
2:53 pm 14:53 Sunny 99 37.2 40 4.4 13 13 SSE 14 22 29.78 1008 10 16.0934 0 0
3:53 pm 15:53 Sunny 99 37.2 39 3.9 12 12 S 8 13 29.75 1007 10 16.0934 0 0
4:53 pm 16:53 Sunny 100 37.8 41 5 13 13 S 17 28 29.73 1007 10 16.0934 0 0
5:53 pm 17:53 Sunny 97 36.1 45 7.2 17 17 S 18 30 29.73 1007 10 16.0934 0 0
6:53 pm 18:53 Sunny 94 34.4 46 7.8 19 19 SSW 13 20 29.74 1007 10 16.0934 0 0
7:53 pm 19:53 Clear 92 33.3 45 7.2 20 20 S 16 26 29.76 1008 10 16.0934 0 0
8:53 pm 20:53 Clear 91 32.8 43 6.1 19 19 S 14 22 29.79 1009 10 16.0934 0 0
9:53 pm 21:53 Clear 90 32.2 44 6.7 20 20 S 15 24 29.81 1010 10 16.0934 0 0
10:53 pm 22:53 Clear 82 27.8 53 11.7 37 37 ENE 25 41 29.89 1012 9 14.48406 0 0
11:53 pm 23:53 Clear 82 27.8 52 11.1 35 35 E 22 35 29.9 1013 10 16.0934 0 0

Powered by AerisWeather